Weather History for Sidney, NE

Change the Weather History Date:

Thursday, May 2, 2013

  Actual Average Record
Temperature  
Mean Temperature 34 °F 53 °F  
Max Temperature 48 °F 68 °F 84 °F (1949)
Min Temperature 20 °F 39 °F 17 °F (2005)
Degree Days  
Heating Degree Days 31 12  
Month to date heating degree days 66 24  
Since 1 July heating degree days 6416 5936  
Cooling Degree Days 0 0  
Month to date cooling degree days 0 0  
Year to date cooling degree days 0 1  
Moisture  
Dew Point 19 °F    
Average Humidity 55    
Maximum Humidity 84    
Minimum Humidity 26    
Precipitation  
Precipitation 0.00 in 0.10 in 0.73 in (2001)
Month to date precipitation 0.17 0.20  
Year to date precipitation 2.35 3.87  
Sea Level Pressure  
Sea Level Pressure 30.65 in    
Wind  
Wind Speed 10 mph (NW)    
Max Wind Speed 16 mph    
Max Gust Speed 22 mph    
Visibility 10 miles    
Events      
T = Trace of Precipitation, MM = Missing Value Source: NWS Daily Summary

Daily Weather History Graph

Daily Weather History Graph

Search for Another Location

Airport:

Trip Planner

Search our weather history database for the weather conditions in past years. The results will help you decide how hot, cold, wet, or windy it might be!

Date:

Astronomy

May. 02, 2013 Rise Set
Actual Time 5:48 AM MDT 7:50 PM MDT
Civil Twilight 5:18 AM MDT 8:20 PM MDT
Nautical Twilight 4:41 AM MDT 8:57 PM MDT
Astronomical Twilight 4:01 AM MDT 9:37 PM MDT
Moon 1:40 AM MDT (5/2) 12:38 PM MDT (5/2)
Length of Visible Light 15h 02m
Length of Day
14h 02m
Waning Gibbous, 47% of the Moon is Illuminated
May 2
Waning Gibbous
May 9
New
May 17
First Quarter
May 24
Full
May 31
Last Quarter

Hourly Weather History & Observations

Time (MDT) Temp. Windchill Dew Point Humidity Pressure Visibility Wind Dir Wind Speed Gust Speed Precip Events Conditions
12:53 AM 26.1 °F 14.0 °F 21.0 °F 81% 30.70 in 10.0 mi NW 15.0 mph - N/A   Mostly Cloudy
1:53 AM 26.1 °F 14.5 °F 19.0 °F 75% 30.70 in 10.0 mi NW 13.8 mph - N/A   Overcast
2:53 AM 23.0 °F 11.7 °F 18.0 °F 81% 30.72 in 10.0 mi NW 11.5 mph - N/A   Mostly Cloudy
3:53 AM 21.9 °F 11.0 °F 17.1 °F 82% 30.73 in 10.0 mi WNW 10.4 mph - N/A   Scattered Clouds
4:53 AM 21.0 °F 9.9 °F 16.0 °F 81% 30.74 in 10.0 mi WNW 10.4 mph - N/A   Clear
5:53 AM 19.9 °F 8.6 °F 15.1 °F 81% 30.77 in 10.0 mi WNW 10.4 mph - N/A   Partly Cloudy
6:53 AM 21.0 °F 9.3 °F 15.1 °F 78% 30.79 in 10.0 mi WNW 11.5 mph - N/A   Clear
7:53 AM 25.0 °F 13.6 °F 17.1 °F 72% 30.78 in 10.0 mi WNW 12.7 mph - N/A   Clear
8:53 AM 28.9 °F 20.4 °F 19.9 °F 69% 30.77 in 10.0 mi WNW 9.2 mph - N/A   Clear
9:53 AM 34.0 °F 25.5 °F 24.1 °F 67% 30.76 in 10.0 mi WNW 11.5 mph - N/A   Clear
10:53 AM 37.9 °F 30.9 °F 25.0 °F 60% 30.74 in 10.0 mi NNW 10.4 mph - N/A   Clear
11:53 AM 39.9 °F 32.9 °F 21.9 °F 49% 30.72 in 10.0 mi NW 11.5 mph - N/A   Clear
12:53 PM 43.0 °F 36.4 °F 25.0 °F 49% 30.68 in 10.0 mi WNW 12.7 mph - N/A   Clear
1:53 PM 45.0 °F 38.9 °F 24.1 °F 44% 30.65 in 10.0 mi NW 12.7 mph 20.7 mph N/A   Clear
2:53 PM 46.9 °F - 19.0 °F 33% 30.62 in 10.0 mi North 12.7 mph - N/A   Partly Cloudy
3:53 PM 48.0 °F - 17.1 °F 29% 30.59 in 10.0 mi NW 12.7 mph 20.7 mph N/A   Clear
4:53 PM 46.0 °F 39.9 °F 14.0 °F 28% 30.58 in 10.0 mi NW 13.8 mph - N/A   Clear
5:53 PM 46.9 °F - 15.1 °F 28% 30.55 in 10.0 mi WNW 10.4 mph - N/A   Clear
6:53 PM 45.0 °F 40.1 °F 14.0 °F 29% 30.54 in 10.0 mi WNW 9.2 mph - N/A   Scattered Clouds
7:53 PM 37.0 °F 31.6 °F 19.9 °F 50% 30.54 in 10.0 mi West 6.9 mph - N/A   Clear
8:53 PM 32.0 °F - 21.0 °F 64% 30.54 in 10.0 mi North - - N/A   Clear
9:53 PM 30.9 °F 24.3 °F 19.9 °F 64% 30.52 in 10.0 mi NW 6.9 mph - N/A   Clear
10:53 PM 28.9 °F 21.1 °F 19.9 °F 69% 30.49 in 10.0 mi West 8.1 mph - N/A   Clear
11:53 PM 25.0 °F 19.3 °F 19.9 °F 81% 30.48 in 10.0 mi West 4.6 mph - N/A   Clear